SORCE

Last updated on Mon Sep 21 2026 00:02:52 GMT+0000 (Coordinated Universal Time)

1 27651U 03004A 26263.56239517 .00001738 00000+0 13369-3 0 9998 2 27651 39.9906 77.3355 0017174 12.3740 347.7473 15.04130557286266
UTC large
Height (km)
Speed (km/s)
/
Latitude / Longitude
Inclination (degrees)
Orbital Period (minutes)
Azimuth
Elevation
Range (km)
Doppler Factor

Next 0 passes for location: London (51.5072 / 0.1276)

No passes found over London.
SORCE